Time,TemperatureF,DewpointF,PressureIn,WindDirection,WindDirectionDegrees,WindSpeedMPH,WindSpeedGustMPH,Humidity,HourlyPrecipIn,Conditions,Clouds,dailyrainin,SolarRadiationWatts/m^2,SoftwareType,DateUTC
2013-10-25 00:01:00,46.4,39.6,30.17,ESE,123,0.0,0.0,77,0.00,BKN,,0.00,0.0,WeatherDisplay:10.37,2013-10-25 04:01:00,
2013-10-25 00:11:00,46.4,38.9,30.17,ESE,123,0.0,0.0,75,0.00,BKN,,0.00,0.0,WeatherDisplay:10.37,2013-10-25 04:11:00,
2013-10-25 00:16:00,46.4,38.6,30.17,ESE,123,0.0,0.0,74,0.00,BKN,,0.00,0.0,WeatherDisplay:10.37,2013-10-25 04:16:00,
2013-10-25 00:21:00,46.4,38.2,30.17,ESE,123,0.0,0.0,73,0.00,BKN,,0.00,0.0,WeatherDisplay:10.37,2013-10-25 04:21:00,
2013-10-25 00:26:00,46.5,38.7,30.17,ESE,123,0.0,0.0,74,0.00,BKN,,0.00,0.0,WeatherDisplay:10.37,2013-10-25 04:26:00,
2013-10-25 00:31:00,46.6,38.8,30.17,ESE,123,0.0,0.0,74,0.00,BKN,,0.00,0.0,WeatherDisplay:10.37,2013-10-25 04:31:00,
2013-10-25 00:36:00,46.7,39.2,30.17,ESE,123,0.0,0.0,75,0.00,BKN,,0.00,0.0,WeatherDisplay:10.37,2013-10-25 04:36:00,
2013-10-25 00:41:00,46.7,39.2,30.17,ESE,123,0.0,0.0,75,0.00,BKN,,0.00,0.0,WeatherDisplay:10.37,2013-10-25 04:41:00,
2013-10-25 00:46:00,46.7,39.2,30.17,ESE,123,0.0,0.0,75,0.00,BKN,,0.00,0.0,WeatherDisplay:10.37,2013-10-25 04:46:00,
2013-10-25 00:51:00,46.8,39.3,30.17,ESE,123,0.0,0.0,75,0.00,BKN,,0.00,0.0,WeatherDisplay:10.37,2013-10-25 04:51:00,
2013-10-25 00:56:00,46.8,39.3,30.17,ESE,123,0.0,0.0,75,0.00,BKN,,0.00,0.0,WeatherDisplay:10.37,2013-10-25 04:56:00,
2013-10-25 01:01:00,46.8,39.6,30.17,ESE,123,0.0,0.0,76,0.00,OVC,,0.00,0.0,WeatherDisplay:10.37,2013-10-25 05:01:00,
2013-10-25 01:11:00,46.7,39.9,30.17,ESE,123,0.0,0.0,77,0.00,OVC,,0.00,0.0,WeatherDisplay:10.37,2013-10-25 05:11:00,
2013-10-25 01:16:00,46.7,39.9,30.17,ESE,123,0.0,0.0,77,0.00,OVC,,0.00,0.0,WeatherDisplay:10.37,2013-10-25 05:16:00,
2013-10-25 01:21:00,46.7,39.9,30.17,ESE,123,0.0,0.0,77,0.00,OVC,,0.00,0.0,WeatherDisplay:10.37,2013-10-25 05:21:00,
2013-10-25 01:26:00,46.7,39.9,30.17,ESE,123,0.0,0.0,77,0.00,OVC,,0.00,0.0,WeatherDisplay:10.37,2013-10-25 05:26:00,
2013-10-25 01:31:00,46.7,39.9,30.18,ESE,123,0.0,0.0,77,0.00,OVC,,0.00,0.0,WeatherDisplay:10.37,2013-10-25 05:31:00,
2013-10-25 01:36:00,46.7,39.9,30.18,ESE,123,0.0,0.0,77,0.00,OVC,,0.00,0.0,WeatherDisplay:10.37,2013-10-25 05:36:00,
2013-10-25 01:41:00,46.5,39.3,30.18,ESE,123,0.0,0.0,76,0.00,OVC,,0.00,0.0,WeatherDisplay:10.37,2013-10-25 05:41:00,
2013-10-25 01:46:00,46.5,39.3,30.18,ESE,123,0.0,0.0,76,0.00,OVC,,0.00,0.0,WeatherDisplay:10.37,2013-10-25 05:46:00,
2013-10-25 01:51:00,46.4,38.6,30.18,ESE,123,0.0,0.0,74,0.00,OVC,,0.00,0.0,WeatherDisplay:10.37,2013-10-25 05:51:00,
2013-10-25 01:56:00,46.4,38.6,30.18,East,100,0.0,0.0,74,0.00,OVC,,0.00,0.0,WeatherDisplay:10.37,2013-10-25 05:56:00,
2013-10-25 02:01:00,46.2,38.4,30.18,ENE,70,0.0,0.0,74,0.00,OVC,,0.00,0.0,WeatherDisplay:10.37,2013-10-25 06:01:00,
2013-10-25 02:11:00,46.2,37.7,30.18,NNE,24,0.0,0.0,72,0.00,OVC,,0.00,0.0,WeatherDisplay:10.37,2013-10-25 06:11:00,
2013-10-25 02:16:00,46.2,37.7,30.18,North,360,0.0,0.0,72,0.00,OVC,,0.00,0.0,WeatherDisplay:10.37,2013-10-25 06:16:00,
2013-10-25 02:21:00,46.2,37.7,30.18,North,360,0.0,0.0,72,0.00,OVC,,0.00,0.0,WeatherDisplay:10.37,2013-10-25 06:21:00,
2013-10-25 02:26:00,46.2,37.3,30.18,North,360,0.0,0.0,71,0.00,OVC,,0.00,0.0,WeatherDisplay:10.37,2013-10-25 06:26:00,
2013-10-25 02:31:00,46.2,37.3,30.18,North,360,0.0,0.0,71,0.00,OVC,,0.00,0.0,WeatherDisplay:10.37,2013-10-25 06:31:00,
2013-10-25 02:36:00,46.2,37.3,30.18,North,360,0.0,0.0,71,0.00,OVC,,0.00,0.0,WeatherDisplay:10.37,2013-10-25 06:36:00,
2013-10-25 02:41:00,46.2,37.0,30.18,North,360,0.0,0.0,70,0.00,OVC,,0.00,0.0,WeatherDisplay:10.37,2013-10-25 06:41:00,
2013-10-25 02:46:00,46.2,36.6,30.18,North,360,0.0,0.0,69,0.00,OVC,,0.00,0.0,WeatherDisplay:10.37,2013-10-25 06:46:00,
2013-10-25 02:51:00,46.2,36.6,30.18,North,360,0.0,0.0,69,0.00,OVC,,0.00,0.0,WeatherDisplay:10.37,2013-10-25 06:51:00,
2013-10-25 02:56:00,46.2,36.2,30.18,North,360,0.0,0.0,68,0.00,OVC,,0.00,0.0,WeatherDisplay:10.37,2013-10-25 06:56:00,
2013-10-25 03:01:00,46.1,36.1,30.19,North,360,0.0,0.0,68,0.00,BKN,,0.00,0.0,WeatherDisplay:10.37,2013-10-25 07:01:00,
2013-10-25 03:11:00,46.1,36.1,30.19,North,360,0.0,0.0,68,0.00,BKN,,0.00,0.0,WeatherDisplay:10.37,2013-10-25 07:11:00,
2013-10-25 03:16:00,46.1,36.1,30.19,North,360,0.0,0.0,68,0.00,BKN,,0.00,0.0,WeatherDisplay:10.37,2013-10-25 07:16:00,
2013-10-25 03:21:00,46.1,36.1,30.19,North,360,0.0,0.0,68,0.00,BKN,,0.00,0.0,WeatherDisplay:10.37,2013-10-25 07:21:00,
2013-10-25 03:26:00,46.0,36.0,30.19,North,360,0.0,0.0,68,0.00,BKN,,0.00,0.0,WeatherDisplay:10.37,2013-10-25 07:26:00,
2013-10-25 03:31:00,46.0,36.0,30.19,North,360,0.0,0.0,68,0.00,BKN,,0.00,0.0,WeatherDisplay:10.37,2013-10-25 07:31:00,
2013-10-25 03:36:00,45.8,35.5,30.19,North,360,0.0,0.0,67,0.00,BKN,,0.00,0.0,WeatherDisplay:10.37,2013-10-25 07:36:00,
2013-10-25 03:41:00,45.8,35.5,30.19,North,360,0.0,0.0,67,0.00,BKN,,0.00,0.0,WeatherDisplay:10.37,2013-10-25 07:41:00,
2013-10-25 03:46:00,45.8,35.5,30.20,North,360,0.0,0.0,67,0.00,BKN,,0.00,0.0,WeatherDisplay:10.37,2013-10-25 07:46:00,
2013-10-25 03:51:00,45.8,36.2,30.20,North,360,0.0,0.0,69,0.00,BKN,,0.00,0.0,WeatherDisplay:10.37,2013-10-25 07:51:00,
2013-10-25 03:56:00,45.7,36.1,30.20,North,358,0.0,0.0,69,0.00,BKN,,0.00,0.0,WeatherDisplay:10.37,2013-10-25 07:56:00,
2013-10-25 04:01:00,45.7,36.1,30.20,North,354,0.0,0.0,69,0.00,BKN,,0.00,0.0,WeatherDisplay:10.37,2013-10-25 08:01:00,
2013-10-25 04:11:00,45.5,35.9,30.20,North,351,0.0,0.0,69,0.00,BKN,,0.00,0.0,WeatherDisplay:10.37,2013-10-25 08:11:00,
2013-10-25 04:16:00,45.5,35.9,30.20,North,351,0.0,0.0,69,0.00,BKN,,0.00,0.0,WeatherDisplay:10.37,2013-10-25 08:16:00,
2013-10-25 04:21:00,45.5,35.9,30.20,North,351,0.0,0.0,69,0.00,BKN,,0.00,0.0,WeatherDisplay:10.37,2013-10-25 08:21:00,
2013-10-25 04:26:00,45.5,36.3,30.20,North,351,0.0,0.0,70,0.00,BKN,,0.00,0.0,WeatherDisplay:10.37,2013-10-25 08:26:00,
2013-10-25 04:31:00,45.4,36.2,30.20,North,351,0.0,0.0,70,0.00,BKN,,0.00,0.0,WeatherDisplay:10.37,2013-10-25 08:31:00,
2013-10-25 04:36:00,45.4,35.8,30.20,North,357,0.0,0.0,69,0.00,BKN,,0.00,0.0,WeatherDisplay:10.37,2013-10-25 08:36:00,
2013-10-25 04:41:00,45.2,35.3,30.20,North,360,0.0,0.0,68,0.00,BKN,,0.00,0.0,WeatherDisplay:10.37,2013-10-25 08:41:00,
2013-10-25 04:46:00,45.2,34.9,30.20,North,360,0.0,0.0,67,0.00,BKN,,0.00,0.0,WeatherDisplay:10.37,2013-10-25 08:46:00,
2013-10-25 04:51:00,45.2,34.5,30.20,North,356,0.0,0.0,66,0.00,BKN,,0.00,0.0,WeatherDisplay:10.37,2013-10-25 08:51:00,
2013-10-25 04:56:00,45.2,33.7,30.20,North,357,0.0,0.0,64,0.00,BKN,,0.00,0.0,WeatherDisplay:10.37,2013-10-25 08:56:00,
2013-10-25 05:01:00,45.2,33.7,30.21,North,359,0.0,0.0,64,0.00,BKN,,0.00,0.0,WeatherDisplay:10.37,2013-10-25 09:01:00,
2013-10-25 05:11:00,45.4,33.5,30.21,North,355,0.0,0.0,63,0.00,BKN,,0.00,0.0,WeatherDisplay:10.37,2013-10-25 09:11:00,
2013-10-25 05:16:00,45.4,33.9,30.21,North,351,0.0,0.0,64,0.00,BKN,,0.00,0.0,WeatherDisplay:10.37,2013-10-25 09:16:00,
2013-10-25 05:21:00,45.4,33.9,30.21,North,351,0.0,0.0,64,0.00,BKN,,0.00,0.0,WeatherDisplay:10.37,2013-10-25 09:21:00,
2013-10-25 05:26:00,45.4,33.9,30.21,North,351,0.0,0.0,64,0.00,BKN,,0.00,0.0,WeatherDisplay:10.37,2013-10-25 09:26:00,
2013-10-25 05:36:00,45.2,32.9,30.22,North,360,0.0,0.0,62,0.00,BKN,,0.00,0.0,WeatherDisplay:10.37,2013-10-25 09:36:00,
2013-10-25 05:46:00,45.3,33.1,30.22,North,1,0.0,0.0,62,0.00,BKN,,0.00,0.0,WeatherDisplay:10.37,2013-10-25 09:46:00,
2013-10-25 05:51:00,45.4,33.1,30.23,NNW,346,0.0,0.0,62,0.00,BKN,,0.00,0.0,WeatherDisplay:10.37,2013-10-25 09:51:00,
2013-10-25 05:56:00,45.2,33.3,30.23,North,353,0.0,0.0,63,0.00,BKN,,0.00,0.0,WeatherDisplay:10.37,2013-10-25 09:56:00,
2013-10-25 06:01:00,45.2,32.9,30.23,North,1,0.0,0.0,62,0.00,BKN,,0.00,0.0,WeatherDisplay:10.37,2013-10-25 10:01:00,
2013-10-25 06:11:00,45.2,32.9,30.23,NNW,345,0.0,0.0,62,0.00,BKN,,0.00,0.0,WeatherDisplay:10.37,2013-10-25 10:11:00,
2013-10-25 06:16:00,45.1,32.8,30.23,NNW,330,0.0,0.0,62,0.00,BKN,,0.00,0.0,WeatherDisplay:10.37,2013-10-25 10:16:00,
2013-10-25 06:21:00,45.1,33.2,30.23,NNW,343,0.0,0.0,63,0.00,BKN,,0.00,0.0,WeatherDisplay:10.37,2013-10-25 10:21:00,
2013-10-25 06:26:00,44.9,33.1,30.23,North,349,0.0,0.0,63,0.00,BKN,,0.00,0.0,WeatherDisplay:10.37,2013-10-25 10:26:00,
2013-10-25 06:31:00,44.8,33.0,30.23,North,350,0.0,0.0,63,0.00,BKN,,0.00,0.0,WeatherDisplay:10.37,2013-10-25 10:31:00,
2013-10-25 06:36:00,44.7,32.9,30.23,North,351,0.0,0.0,63,0.00,BKN,,0.00,0.0,WeatherDisplay:10.37,2013-10-25 10:36:00,
2013-10-25 06:41:00,44.6,33.2,30.23,North,351,0.0,0.0,64,0.00,BKN,,0.00,0.0,WeatherDisplay:10.37,2013-10-25 10:41:00,
2013-10-25 06:46:00,44.5,33.1,30.24,North,351,0.0,0.0,64,0.00,BKN,,0.00,0.0,WeatherDisplay:10.37,2013-10-25 10:46:00,
2013-10-25 06:51:00,44.5,33.1,30.24,North,351,0.0,0.0,64,0.00,BKN,,0.00,0.0,WeatherDisplay:10.37,2013-10-25 10:51:00,
2013-10-25 06:56:00,44.3,33.3,30.24,North,351,0.0,0.0,65,0.00,BKN,,0.00,0.0,WeatherDisplay:10.37,2013-10-25 10:56:00,
2013-10-25 07:01:00,44.2,33.2,30.24,North,351,0.0,0.0,65,0.00,SCT,,0.00,0.0,WeatherDisplay:10.37,2013-10-25 11:01:00,
2013-10-25 07:11:00,43.9,32.9,30.24,North,351,0.0,0.0,65,0.00,SCT,,0.00,0.0,WeatherDisplay:10.37,2013-10-25 11:11:00,
2013-10-25 07:16:00,43.8,32.4,30.25,North,350,0.0,0.0,64,0.00,SCT,,0.00,0.0,WeatherDisplay:10.37,2013-10-25 11:16:00,
2013-10-25 07:21:00,43.8,32.8,30.25,North,350,0.0,0.0,65,0.00,SCT,,0.00,0.0,WeatherDisplay:10.37,2013-10-25 11:21:00,
2013-10-25 07:26:00,43.6,32.6,30.25,North,351,0.0,0.0,65,0.00,SCT,,0.00,0.0,WeatherDisplay:10.37,2013-10-25 11:26:00,
2013-10-25 07:31:00,43.6,32.6,30.25,North,349,0.0,0.0,65,0.00,SCT,,0.00,0.0,WeatherDisplay:10.37,2013-10-25 11:31:00,
2013-10-25 07:36:00,43.5,32.9,30.25,NNW,344,0.0,0.0,66,0.00,SCT,,0.00,0.0,WeatherDisplay:10.37,2013-10-25 11:36:00,
2013-10-25 07:41:00,43.3,32.7,30.25,NNW,341,0.0,0.0,66,0.00,SCT,,0.00,5.8,WeatherDisplay:10.37,2013-10-25 11:41:00,
2013-10-25 07:46:00,43.2,32.6,30.26,NNW,347,0.0,0.0,66,0.00,SCT,,0.00,10.3,WeatherDisplay:10.37,2013-10-25 11:46:00,
2013-10-25 07:51:00,43.1,32.9,30.26,North,351,0.0,0.0,67,0.00,SCT,,0.00,10.3,WeatherDisplay:10.37,2013-10-25 11:51:00,
2013-10-25 07:56:00,42.9,32.7,30.26,North,349,0.0,0.0,67,0.00,SCT,,0.00,10.3,WeatherDisplay:10.37,2013-10-25 11:56:00,
2013-10-25 08:01:00,42.8,33.0,30.26,NNW,348,0.0,0.0,68,0.00,SCT,,0.00,16.1,WeatherDisplay:10.37,2013-10-25 12:01:00,
2013-10-25 08:11:00,42.6,33.1,30.26,NNW,348,0.0,0.0,69,0.00,SCT,,0.00,28.8,WeatherDisplay:10.37,2013-10-25 12:11:00,
2013-10-25 08:16:00,42.5,33.0,30.27,North,352,0.0,0.0,69,0.00,SCT,,0.00,21.9,WeatherDisplay:10.37,2013-10-25 12:16:00,
2013-10-25 08:21:00,42.5,33.4,30.27,North,358,0.0,0.0,70,0.00,SCT,,0.00,24.1,WeatherDisplay:10.37,2013-10-25 12:21:00,
2013-10-25 08:26:00,42.3,33.2,30.27,North,360,0.0,0.0,70,0.00,SCT,,0.00,28.8,WeatherDisplay:10.37,2013-10-25 12:26:00,
2013-10-25 08:31:00,42.3,33.2,30.27,North,360,0.0,0.0,70,0.00,SCT,,0.00,21.9,WeatherDisplay:10.37,2013-10-25 12:31:00,
2013-10-25 08:36:00,42.2,33.1,30.27,North,360,0.0,0.0,70,0.00,SCT,,0.00,32.2,WeatherDisplay:10.37,2013-10-25 12:36:00,
2013-10-25 08:41:00,42.2,33.1,30.27,North,360,0.0,0.0,70,0.00,SCT,,0.00,32.2,WeatherDisplay:10.37,2013-10-25 12:41:00,
2013-10-25 08:46:00,42.3,33.2,30.28,North,355,0.0,0.0,70,0.00,SCT,,0.00,34.5,WeatherDisplay:10.37,2013-10-25 12:46:00,
2013-10-25 08:51:00,42.3,33.2,30.28,North,351,0.0,0.0,70,0.00,SCT,,0.00,38.0,WeatherDisplay:10.37,2013-10-25 12:51:00,
2013-10-25 08:56:00,42.5,33.0,30.28,North,351,0.0,0.0,69,0.00,SCT,,0.00,40.3,WeatherDisplay:10.37,2013-10-25 12:56:00,
2013-10-25 09:01:00,42.7,32.8,30.28,North,358,0.0,0.0,68,0.00,SCT,,0.00,40.3,WeatherDisplay:10.37,2013-10-25 13:01:00,
2013-10-25 09:11:00,43.2,33.3,30.28,North,4,0.0,0.0,68,0.00,SCT,,0.00,44.9,WeatherDisplay:10.37,2013-10-25 13:11:00,
2013-10-25 09:16:00,43.4,33.2,30.29,North,358,0.0,0.0,67,0.00,SCT,,0.00,44.9,WeatherDisplay:10.37,2013-10-25 13:16:00,
2013-10-25 09:21:00,43.7,33.1,30.29,North,355,0.0,0.0,66,0.00,SCT,,0.00,48.3,WeatherDisplay:10.37,2013-10-25 13:21:00,
2013-10-25 09:26:00,44.1,32.7,30.29,North,358,0.0,0.0,64,0.00,SCT,,0.00,48.3,WeatherDisplay:10.37,2013-10-25 13:26:00,
2013-10-25 09:31:00,44.3,32.9,30.29,North,0,0.0,0.0,64,0.00,SCT,,0.00,50.6,WeatherDisplay:10.37,2013-10-25 13:31:00,
2013-10-25 09:36:00,44.6,32.8,30.29,North,11,0.0,0.0,63,0.00,SCT,,0.00,52.9,WeatherDisplay:10.37,2013-10-25 13:36:00,
2013-10-25 09:41:00,44.9,32.7,30.29,North,2,0.0,0.0,62,0.00,SCT,,0.00,54.0,WeatherDisplay:10.37,2013-10-25 13:41:00,
2013-10-25 09:46:00,45.1,32.9,30.30,North,2,0.0,0.0,62,0.00,SCT,,0.00,54.0,WeatherDisplay:10.37,2013-10-25 13:46:00,
2013-10-25 09:51:00,45.4,32.3,30.30,North,2,0.0,0.0,60,0.00,SCT,,0.00,56.4,WeatherDisplay:10.37,2013-10-25 13:51:00,
2013-10-25 09:56:00,45.7,31.7,30.30,North,3,0.0,0.0,58,0.00,SCT,,0.00,56.4,WeatherDisplay:10.37,2013-10-25 13:56:00,
2013-10-25 10:01:00,45.8,32.3,30.30,North,358,0.0,0.0,59,0.00,FEW,,0.00,58.6,WeatherDisplay:10.37,2013-10-25 14:01:00,
2013-10-25 10:11:00,46.3,31.4,30.30,North,358,0.0,0.0,56,0.00,FEW,,0.00,61.0,WeatherDisplay:10.37,2013-10-25 14:11:00,
2013-10-25 10:16:00,46.5,31.6,30.30,North,3,0.0,0.0,56,0.00,FEW,,0.00,61.0,WeatherDisplay:10.37,2013-10-25 14:16:00,
2013-10-25 10:21:00,46.8,31.0,30.30,North,11,0.0,0.0,54,0.00,FEW,,0.00,61.0,WeatherDisplay:10.37,2013-10-25 14:21:00,
2013-10-25 10:26:00,47.1,31.3,30.30,North,5,0.0,0.0,54,0.00,FEW,,0.00,61.0,WeatherDisplay:10.37,2013-10-25 14:26:00,
2013-10-25 10:36:00,47.6,31.3,30.30,North,4,0.0,0.0,53,0.00,FEW,,0.00,62.1,WeatherDisplay:10.37,2013-10-25 14:36:00,
2013-10-25 10:41:00,47.9,31.6,30.30,North,1,0.0,0.0,53,0.00,FEW,,0.00,62.1,WeatherDisplay:10.37,2013-10-25 14:41:00,
2013-10-25 10:51:00,48.5,31.2,30.30,North,2,0.0,0.0,51,0.00,FEW,,0.00,69.0,WeatherDisplay:10.37,2013-10-25 14:51:00,
2013-10-25 11:01:00,49.6,31.2,30.30,North,11,0.0,0.0,49,0.00,FEW,,0.00,632.5,WeatherDisplay:10.37,2013-10-25 15:01:00,
2013-10-25 11:11:00,51.1,32.0,30.30,North,358,0.0,0.0,48,0.00,FEW,,0.00,663.5,WeatherDisplay:10.37,2013-10-25 15:11:00,
2013-10-25 11:16:00,51.6,32.0,30.30,North,359,0.0,0.0,47,0.00,FEW,,0.00,671.6,WeatherDisplay:10.37,2013-10-25 15:16:00,
2013-10-25 11:21:00,52.0,32.9,30.30,North,3,0.0,0.0,48,0.00,FEW,,0.00,685.4,WeatherDisplay:10.37,2013-10-25 15:21:00,
2013-10-25 11:26:00,52.5,32.9,30.30,North,358,0.0,0.0,47,0.00,FEW,,0.00,695.8,WeatherDisplay:10.37,2013-10-25 15:26:00,
2013-10-25 11:31:00,52.8,32.6,30.30,North,357,0.0,0.0,46,0.00,FEW,,0.00,699.2,WeatherDisplay:10.37,2013-10-25 15:31:00,
2013-10-25 11:36:00,52.8,33.1,30.29,North,10,0.0,0.0,47,0.00,FEW,,0.00,709.5,WeatherDisplay:10.37,2013-10-25 15:36:00,
2013-10-25 11:41:00,52.9,32.7,30.29,NNE,14,0.0,0.0,46,0.00,FEW,,0.00,723.4,WeatherDisplay:10.37,2013-10-25 15:41:00,
2013-10-25 11:46:00,53.1,33.4,30.29,North,357,0.0,0.0,47,0.00,FEW,,0.00,730.3,WeatherDisplay:10.37,2013-10-25 15:46:00,
2013-10-25 11:51:00,53.3,34.1,30.29,NNW,343,0.0,0.0,48,0.00,FEW,,0.00,733.7,WeatherDisplay:10.37,2013-10-25 15:51:00,
2013-10-25 11:56:00,53.6,32.8,30.29,North,355,0.0,0.0,45,0.00,FEW,,0.00,749.8,WeatherDisplay:10.37,2013-10-25 15:56:00,
2013-10-25 12:01:00,53.8,32.4,30.29,North,9,0.0,0.0,44,0.00,FEW,,0.00,752.1,WeatherDisplay:10.37,2013-10-25 16:01:00,
2013-10-25 12:11:00,53.9,32.5,30.29,North,358,0.0,0.0,44,0.00,FEW,,0.00,765.9,WeatherDisplay:10.37,2013-10-25 16:11:00,
2013-10-25 12:16:00,54.3,32.8,30.29,North,4,0.0,0.0,44,0.00,FEW,,0.00,778.5,WeatherDisplay:10.37,2013-10-25 16:16:00,
2013-10-25 12:21:00,54.5,33.0,30.29,NNW,345,0.0,0.0,44,0.00,FEW,,0.00,763.6,WeatherDisplay:10.37,2013-10-25 16:21:00,
2013-10-25 12:26:00,54.5,33.5,30.29,NNW,334,0.0,0.0,45,0.00,FEW,,0.00,722.2,WeatherDisplay:10.37,2013-10-25 16:26:00,
2013-10-25 12:31:00,54.4,34.0,30.29,NNW,348,0.0,0.0,46,0.00,FEW,,0.00,648.6,WeatherDisplay:10.37,2013-10-25 16:31:00,
2013-10-25 12:36:00,54.4,31.8,30.29,North,352,0.0,0.0,42,0.00,FEW,,0.00,608.4,WeatherDisplay:10.37,2013-10-25 16:36:00,
2013-10-25 12:41:00,54.8,33.3,30.29,North,356,0.0,0.0,44,0.00,FEW,,0.00,637.1,WeatherDisplay:10.37,2013-10-25 16:41:00,
2013-10-25 12:46:00,54.8,32.7,30.29,NNW,336,0.0,0.0,43,0.00,FEW,,0.00,707.3,WeatherDisplay:10.37,2013-10-25 16:46:00,
2013-10-25 12:51:00,54.7,32.6,30.29,NNW,328,0.0,0.0,43,0.00,FEW,,0.00,790.0,WeatherDisplay:10.37,2013-10-25 16:51:00,
2013-10-25 12:56:00,55.1,34.7,30.29,North,353,0.0,0.0,46,0.00,FEW,,0.00,805.0,WeatherDisplay:10.37,2013-10-25 16:56:00,
2013-10-25 13:01:00,54.7,30.8,30.29,NNW,344,0.0,0.0,40,0.00,FEW,,0.00,798.1,WeatherDisplay:10.37,2013-10-25 17:01:00,
2013-10-25 13:11:00,55.1,30.6,30.29,NW,314,0.0,0.0,39,0.00,FEW,,0.00,813.0,WeatherDisplay:10.37,2013-10-25 17:11:00,
2013-10-25 13:21:00,55.4,30.9,30.29,North,353,0.0,0.0,39,0.00,FEW,,0.00,794.6,WeatherDisplay:10.37,2013-10-25 17:21:00,
2013-10-25 13:26:00,55.3,33.7,30.29,NW,323,0.0,0.0,44,0.00,FEW,,0.00,765.9,WeatherDisplay:10.37,2013-10-25 17:26:00,
2013-10-25 13:31:00,55.5,32.1,30.28,NNW,342,0.0,0.0,41,0.00,FEW,,0.00,757.9,WeatherDisplay:10.37,2013-10-25 17:31:00,
2013-10-25 13:36:00,55.4,31.5,30.28,NNW,347,0.0,0.0,40,0.00,FEW,,0.00,731.4,WeatherDisplay:10.37,2013-10-25 17:36:00,
2013-10-25 13:41:00,55.3,32.0,30.28,North,358,0.0,0.0,41,0.00,FEW,,0.00,691.1,WeatherDisplay:10.37,2013-10-25 17:41:00,
2013-10-25 13:46:00,55.6,30.4,30.28,North,4,0.0,0.0,38,0.00,FEW,,0.00,656.6,WeatherDisplay:10.37,2013-10-25 17:46:00,
2013-10-25 13:51:00,55.3,28.8,30.28,North,4,0.0,0.0,36,0.00,FEW,,0.00,79.3,WeatherDisplay:10.37,2013-10-25 17:51:00,
2013-10-25 13:56:00,55.3,30.7,30.28,North,353,0.0,0.0,39,0.00,FEW,,0.00,85.1,WeatherDisplay:10.37,2013-10-25 17:56:00,
2013-10-25 14:01:00,55.3,31.4,30.27,WNW,289,0.0,0.0,40,0.00,SCT,,0.00,72.5,WeatherDisplay:10.37,2013-10-25 18:01:00,
2013-10-25 14:11:00,55.6,32.8,30.27,NW,312,0.0,0.0,42,0.00,SCT,,0.00,93.2,WeatherDisplay:10.37,2013-10-25 18:11:00,
2013-10-25 14:16:00,55.7,31.1,30.27,North,354,0.0,0.0,39,0.00,SCT,,0.00,104.7,WeatherDisplay:10.37,2013-10-25 18:16:00,
2013-10-25 14:21:00,55.6,31.0,30.27,North,352,0.0,0.0,39,0.00,SCT,,0.00,112.7,WeatherDisplay:10.37,2013-10-25 18:21:00,
2013-10-25 14:26:00,55.6,31.6,30.27,North,352,0.0,0.0,40,0.00,SCT,,0.00,93.2,WeatherDisplay:10.37,2013-10-25 18:26:00,
2013-10-25 14:31:00,55.6,30.4,30.26,North,4,0.0,0.0,38,0.00,SCT,,0.00,103.5,WeatherDisplay:10.37,2013-10-25 18:31:00,
2013-10-25 14:36:00,55.4,30.2,30.26,North,8,0.0,0.0,38,0.00,SCT,,0.00,138.0,WeatherDisplay:10.37,2013-10-25 18:36:00,
2013-10-25 14:41:00,55.4,30.8,30.26,North,359,0.0,0.0,39,0.00,SCT,,0.00,115.0,WeatherDisplay:10.37,2013-10-25 18:41:00,
2013-10-25 14:46:00,55.6,31.0,30.26,North,355,0.0,0.0,39,0.00,SCT,,0.00,95.5,WeatherDisplay:10.37,2013-10-25 18:46:00,
2013-10-25 14:51:00,55.6,30.4,30.26,North,1,0.0,0.0,38,0.00,SCT,,0.00,155.3,WeatherDisplay:10.37,2013-10-25 18:51:00,
2013-10-25 14:56:00,55.7,31.7,30.26,NNE,15,0.0,0.0,40,0.00,SCT,,0.00,107.0,WeatherDisplay:10.37,2013-10-25 18:56:00,
2013-10-25 15:01:00,56.0,30.7,30.26,NNE,15,0.0,0.0,38,0.00,SCT,,0.00,663.5,WeatherDisplay:10.37,2013-10-25 19:01:00,
2013-10-25 15:11:00,56.0,30.1,30.26,North,356,0.0,0.0,37,0.00,SCT,,0.00,640.5,WeatherDisplay:10.37,2013-10-25 19:11:00,
2013-10-25 15:16:00,56.0,31.4,30.26,NW,312,0.0,0.0,39,0.00,SCT,,0.00,642.9,WeatherDisplay:10.37,2013-10-25 19:16:00,
2013-10-25 15:21:00,55.9,31.3,30.26,WNW,298,0.0,0.0,39,0.00,SCT,,0.00,614.1,WeatherDisplay:10.37,2013-10-25 19:21:00,
2013-10-25 15:26:00,55.9,32.5,30.26,NNW,331,0.0,0.0,41,0.00,SCT,,0.00,586.5,WeatherDisplay:10.37,2013-10-25 19:26:00,
2013-10-25 15:31:00,55.7,29.8,30.26,North,357,0.0,0.0,37,0.00,SCT,,0.00,167.9,WeatherDisplay:10.37,2013-10-25 19:31:00,
2013-10-25 15:36:00,55.6,31.0,30.26,North,11,0.0,0.0,39,0.00,SCT,,0.00,129.9,WeatherDisplay:10.37,2013-10-25 19:36:00,
2013-10-25 15:41:00,55.7,31.1,30.26,North,7,0.0,0.0,39,0.00,SCT,,0.00,98.9,WeatherDisplay:10.37,2013-10-25 19:41:00,
2013-10-25 15:46:00,55.7,29.8,30.26,North,1,0.0,0.0,37,0.00,SCT,,0.00,74.8,WeatherDisplay:10.37,2013-10-25 19:46:00,
2013-10-25 15:51:00,55.6,29.7,30.26,North,3,0.0,0.0,37,0.00,SCT,,0.00,64.4,WeatherDisplay:10.37,2013-10-25 19:51:00,
2013-10-25 15:56:00,55.3,30.1,30.26,North,6,0.0,0.0,38,0.00,SCT,,0.00,61.0,WeatherDisplay:10.37,2013-10-25 19:56:00,
2013-10-25 16:01:00,55.1,29.3,30.25,North,360,0.0,0.0,37,0.00,SCT,,0.00,62.1,WeatherDisplay:10.37,2013-10-25 20:01:00,
2013-10-25 16:11:00,54.8,29.7,30.25,North,360,0.0,0.0,38,0.00,SCT,,0.00,58.6,WeatherDisplay:10.37,2013-10-25 20:11:00,
2013-10-25 16:16:00,54.7,30.9,30.26,North,4,0.0,0.0,40,0.00,SCT,,0.00,56.4,WeatherDisplay:10.37,2013-10-25 20:16:00,
2013-10-25 16:21:00,54.7,29.6,30.26,North,357,0.0,0.0,38,0.00,SCT,,0.00,61.0,WeatherDisplay:10.37,2013-10-25 20:21:00,
2013-10-25 16:26:00,54.4,29.3,30.26,North,358,0.0,0.0,38,0.00,SCT,,0.00,85.1,WeatherDisplay:10.37,2013-10-25 20:26:00,
2013-10-25 16:31:00,54.4,30.6,30.26,NNW,345,0.0,0.0,40,0.00,SCT,,0.00,103.5,WeatherDisplay:10.37,2013-10-25 20:31:00,
2013-10-25 16:36:00,54.2,29.8,30.26,North,351,0.0,0.0,39,0.00,SCT,,0.00,72.5,WeatherDisplay:10.37,2013-10-25 20:36:00,
2013-10-25 16:41:00,54.1,30.9,30.26,North,6,0.0,0.0,41,0.00,SCT,,0.00,61.0,WeatherDisplay:10.37,2013-10-25 20:41:00,
2013-10-25 16:46:00,54.1,31.5,30.27,North,8,0.0,0.0,42,0.00,SCT,,0.00,61.0,WeatherDisplay:10.37,2013-10-25 20:46:00,
2013-10-25 16:51:00,54.1,29.7,30.27,NNE,17,0.0,0.0,39,0.00,SCT,,0.00,66.7,WeatherDisplay:10.37,2013-10-25 20:51:00,
2013-10-25 16:56:00,54.1,30.9,30.27,NNE,22,0.0,0.0,41,0.00,SCT,,0.00,54.0,WeatherDisplay:10.37,2013-10-25 20:56:00,
2013-10-25 17:01:00,53.9,30.7,30.27,NNE,15,0.0,0.0,41,0.00,FEW,,0.00,52.9,WeatherDisplay:10.37,2013-10-25 21:01:00,
2013-10-25 17:11:00,53.8,30.0,30.27,North,354,0.0,0.0,40,0.00,FEW,,0.00,40.3,WeatherDisplay:10.37,2013-10-25 21:11:00,
2013-10-25 17:16:00,53.6,31.0,30.27,North,352,0.0,0.0,42,0.00,FEW,,0.00,36.8,WeatherDisplay:10.37,2013-10-25 21:16:00,
2013-10-25 17:21:00,53.5,31.5,30.28,North,358,0.0,0.0,43,0.00,FEW,,0.00,34.5,WeatherDisplay:10.37,2013-10-25 21:21:00,
2013-10-25 17:26:00,53.3,30.2,30.28,North,360,0.0,0.0,41,0.00,FEW,,0.00,32.2,WeatherDisplay:10.37,2013-10-25 21:26:00,
2013-10-25 17:31:00,53.2,30.7,30.28,North,356,0.0,0.0,42,0.00,FEW,,0.00,29.9,WeatherDisplay:10.37,2013-10-25 21:31:00,
2013-10-25 17:36:00,53.1,30.0,30.29,North,357,0.0,0.0,41,0.00,FEW,,0.00,28.8,WeatherDisplay:10.37,2013-10-25 21:36:00,
2013-10-25 17:41:00,52.8,29.8,30.29,North,1,0.0,0.0,41,0.00,FEW,,0.00,26.4,WeatherDisplay:10.37,2013-10-25 21:41:00,
2013-10-25 17:46:00,52.7,30.3,30.28,North,360,0.0,0.0,42,0.00,FEW,,0.00,21.9,WeatherDisplay:10.37,2013-10-25 21:46:00,
2013-10-25 17:51:00,52.5,29.5,30.28,NNE,13,0.0,0.0,41,0.00,FEW,,0.00,20.7,WeatherDisplay:10.37,2013-10-25 21:51:00,
2013-10-25 17:56:00,52.3,30.4,30.28,NNE,26,0.0,0.0,43,0.00,FEW,,0.00,18.4,WeatherDisplay:10.37,2013-10-25 21:56:00,
2013-10-25 18:01:00,52.2,31.5,30.28,NNE,26,0.0,0.0,45,0.00,FEW,,0.00,13.8,WeatherDisplay:10.37,2013-10-25 22:01:00,
2013-10-25 18:11:00,51.9,30.6,30.28,NNE,25,0.0,0.0,44,0.00,FEW,,0.00,10.3,WeatherDisplay:10.37,2013-10-25 22:11:00,
2013-10-25 18:16:00,51.6,31.5,30.29,NNE,24,0.0,0.0,46,0.00,FEW,,0.00,8.1,WeatherDisplay:10.37,2013-10-25 22:16:00,
2013-10-25 18:26:00,51.3,31.7,30.29,NNE,24,0.0,0.0,47,0.00,FEW,,0.00,0.0,WeatherDisplay:10.37,2013-10-25 22:26:00,
2013-10-25 18:31:00,51.1,32.6,30.29,NNE,24,0.0,0.0,49,0.00,FEW,,0.00,0.0,WeatherDisplay:10.37,2013-10-25 22:31:00,
2013-10-25 18:36:00,50.8,32.8,30.29,NNE,24,0.0,0.0,50,0.00,FEW,,0.00,0.0,WeatherDisplay:10.37,2013-10-25 22:36:00,
2013-10-25 18:41:00,50.6,33.6,30.29,NNE,24,0.0,0.0,52,0.00,FEW,,0.00,0.0,WeatherDisplay:10.37,2013-10-25 22:41:00,
2013-10-25 18:46:00,50.3,33.8,30.29,NNE,24,0.0,0.0,53,0.00,FEW,,0.00,0.0,WeatherDisplay:10.37,2013-10-25 22:46:00,
2013-10-25 18:51:00,49.9,33.4,30.29,NNE,24,0.0,0.0,53,0.00,FEW,,0.00,0.0,WeatherDisplay:10.37,2013-10-25 22:51:00,
2013-10-25 18:56:00,49.5,33.6,30.29,NNE,24,0.0,0.0,54,0.00,FEW,,0.00,0.0,WeatherDisplay:10.37,2013-10-25 22:56:00,
2013-10-25 19:01:00,49.1,33.7,30.29,NNE,24,0.0,0.0,55,0.00,CLR,,0.00,0.0,WeatherDisplay:10.37,2013-10-25 23:01:00,
2013-10-25 19:11:00,48.3,33.3,30.29,NNE,24,0.0,0.0,56,0.00,CLR,,0.00,0.0,WeatherDisplay:10.37,2013-10-25 23:11:00,
2013-10-25 19:16:00,47.9,33.4,30.30,NNE,24,0.0,0.0,57,0.00,CLR,,0.00,0.0,WeatherDisplay:10.37,2013-10-25 23:16:00,
2013-10-25 19:21:00,47.4,33.8,30.30,NNE,24,0.0,0.0,59,0.00,CLR,,0.00,0.0,WeatherDisplay:10.37,2013-10-25 23:21:00,
2013-10-25 19:26:00,47.0,33.0,30.30,NNE,24,0.0,0.0,58,0.00,CLR,,0.00,0.0,WeatherDisplay:10.37,2013-10-25 23:26:00,
2013-10-25 19:36:00,46.2,33.5,30.30,NNE,24,0.0,0.0,61,0.00,CLR,,0.00,0.0,WeatherDisplay:10.37,2013-10-25 23:36:00,
2013-10-25 19:41:00,46.0,33.7,30.30,NNE,24,0.0,0.0,62,0.00,CLR,,0.00,0.0,WeatherDisplay:10.37,2013-10-25 23:41:00,
2013-10-25 19:46:00,45.7,33.8,30.31,NNE,24,0.0,0.0,63,0.00,CLR,,0.00,0.0,WeatherDisplay:10.37,2013-10-25 23:46:00,
2013-10-25 19:51:00,45.4,34.3,30.31,NNE,24,0.0,0.0,65,0.00,CLR,,0.00,0.0,WeatherDisplay:10.37,2013-10-25 23:51:00,
2013-10-25 19:56:00,45.1,34.0,30.31,NNE,24,0.0,0.0,65,0.00,CLR,,0.00,0.0,WeatherDisplay:10.37,2013-10-25 23:56:00,
2013-10-25 20:01:00,44.8,33.8,30.31,NNE,24,0.0,0.0,65,0.00,CLR,,0.00,0.0,WeatherDisplay:10.37,2013-10-26 00:01:00,
2013-10-25 20:11:00,44.2,34.0,30.31,NNE,24,0.0,0.0,67,0.00,CLR,,0.00,0.0,WeatherDisplay:10.37,2013-10-26 00:11:00,
2013-10-25 20:16:00,44.0,34.1,30.31,NNE,24,0.0,0.0,68,0.00,CLR,,0.00,0.0,WeatherDisplay:10.37,2013-10-26 00:16:00,
2013-10-25 20:21:00,43.8,33.9,30.31,NNE,24,0.0,0.0,68,0.00,CLR,,0.00,0.0,WeatherDisplay:10.37,2013-10-26 00:21:00,
2013-10-25 20:26:00,43.5,34.0,30.31,NNE,24,0.0,0.0,69,0.00,CLR,,0.00,0.0,WeatherDisplay:10.37,2013-10-26 00:26:00,
2013-10-25 20:31:00,43.3,34.1,30.31,NNE,24,0.0,0.0,70,0.00,CLR,,0.00,0.0,WeatherDisplay:10.37,2013-10-26 00:31:00,
2013-10-25 20:36:00,43.1,34.0,30.31,NNE,24,0.0,0.0,70,0.00,CLR,,0.00,0.0,WeatherDisplay:10.37,2013-10-26 00:36:00,
2013-10-25 20:41:00,42.9,34.1,30.31,NNE,24,0.0,0.0,71,0.00,CLR,,0.00,0.0,WeatherDisplay:10.37,2013-10-26 00:41:00,
2013-10-25 20:46:00,42.6,34.2,30.31,NNE,24,0.0,0.0,72,0.00,CLR,,0.00,0.0,WeatherDisplay:10.37,2013-10-26 00:46:00,
2013-10-25 20:51:00,42.5,34.5,30.31,NNE,24,0.0,0.0,73,0.00,CLR,,0.00,0.0,WeatherDisplay:10.37,2013-10-26 00:51:00,
2013-10-25 20:56:00,42.3,34.6,30.31,NNE,24,0.0,0.0,74,0.00,CLR,,0.00,0.0,WeatherDisplay:10.37,2013-10-26 00:56:00,
2013-10-25 21:01:00,42.1,34.4,30.31,NNE,24,0.0,0.0,74,0.00,CLR,,0.00,0.0,WeatherDisplay:10.37,2013-10-26 01:01:00,
2013-10-25 21:11:00,41.8,34.5,30.31,NNE,24,0.0,0.0,75,0.00,CLR,,0.00,0.0,WeatherDisplay:10.37,2013-10-26 01:11:00,
2013-10-25 21:16:00,41.6,34.2,30.31,NNE,24,0.0,0.0,75,0.00,CLR,,0.00,0.0,WeatherDisplay:10.37,2013-10-26 01:16:00,
2013-10-25 21:21:00,41.3,34.3,30.31,NNE,24,0.0,0.0,76,0.00,CLR,,0.00,0.0,WeatherDisplay:10.37,2013-10-26 01:21:00,
2013-10-25 21:26:00,41.2,34.2,30.31,NNE,24,0.0,0.0,76,0.00,CLR,,0.00,0.0,WeatherDisplay:10.37,2013-10-26 01:26:00,
2013-10-25 21:31:00,41.1,34.4,30.32,NNE,24,0.0,0.0,77,0.00,CLR,,0.00,0.0,WeatherDisplay:10.37,2013-10-26 01:31:00,
2013-10-25 21:36:00,40.8,34.5,30.32,NNE,24,0.0,0.0,78,0.00,CLR,,0.00,0.0,WeatherDisplay:10.37,2013-10-26 01:36:00,
2013-10-25 21:41:00,40.6,34.3,30.32,NNE,24,0.0,0.0,78,0.00,CLR,,0.00,0.0,WeatherDisplay:10.37,2013-10-26 01:41:00,
2013-10-25 21:46:00,40.5,34.5,30.32,NNE,24,0.0,0.0,79,0.00,CLR,,0.00,0.0,WeatherDisplay:10.37,2013-10-26 01:46:00,
2013-10-25 21:51:00,40.3,34.3,30.32,NNE,24,0.0,0.0,79,0.00,CLR,,0.00,0.0,WeatherDisplay:10.37,2013-10-26 01:51:00,
2013-10-25 21:56:00,40.2,34.2,30.32,NNE,24,0.0,0.0,79,0.00,CLR,,0.00,0.0,WeatherDisplay:10.37,2013-10-26 01:56:00,
2013-10-25 22:01:00,40.1,34.1,30.33,NNE,24,0.0,0.0,79,0.00,CLR,,0.00,0.0,WeatherDisplay:10.37,2013-10-26 02:01:00,
2013-10-25 22:11:00,39.8,33.8,30.33,NNE,24,0.0,0.0,79,0.00,CLR,,0.00,0.0,WeatherDisplay:10.37,2013-10-26 02:11:00,
2013-10-25 22:16:00,39.6,33.9,30.33,NNE,24,0.0,0.0,80,0.00,CLR,,0.00,0.0,WeatherDisplay:10.37,2013-10-26 02:16:00,
2013-10-25 22:21:00,39.5,33.8,30.33,NNE,24,0.0,0.0,80,0.00,CLR,,0.00,0.0,WeatherDisplay:10.37,2013-10-26 02:21:00,
2013-10-25 22:31:00,39.2,33.9,30.34,NNE,24,0.0,0.0,81,0.00,CLR,,0.00,0.0,WeatherDisplay:10.37,2013-10-26 02:31:00,
2013-10-25 22:36:00,39.2,34.2,30.34,NNE,24,0.0,0.0,82,0.00,CLR,,0.00,0.0,WeatherDisplay:10.37,2013-10-26 02:36:00,
2013-10-25 22:41:00,39.1,34.1,30.34,NNE,24,0.0,0.0,82,0.00,CLR,,0.00,0.0,WeatherDisplay:10.37,2013-10-26 02:41:00,
2013-10-25 22:46:00,38.9,33.9,30.34,NNE,24,0.0,0.0,82,0.00,CLR,,0.00,0.0,WeatherDisplay:10.37,2013-10-26 02:46:00,
2013-10-25 22:51:00,38.8,33.8,30.34,NNE,24,0.0,0.0,82,0.00,CLR,,0.00,0.0,WeatherDisplay:10.37,2013-10-26 02:51:00,
2013-10-25 23:01:00,38.6,33.9,30.34,NNE,24,0.0,0.0,83,0.00,CLR,,0.00,0.0,WeatherDisplay:10.37,2013-10-26 03:01:00,
2013-10-25 23:11:00,38.5,33.5,30.34,NNE,24,0.0,0.0,82,0.00,CLR,,0.00,0.0,WeatherDisplay:10.37,2013-10-26 03:11:00,
2013-10-25 23:16:00,38.3,33.3,30.34,NNE,24,0.0,0.0,82,0.00,CLR,,0.00,0.0,WeatherDisplay:10.37,2013-10-26 03:16:00,
2013-10-25 23:26:00,38.2,33.5,30.34,NNE,24,0.0,0.0,83,0.00,CLR,,0.00,0.0,WeatherDisplay:10.37,2013-10-26 03:26:00,
2013-10-25 23:31:00,38.2,33.5,30.34,NNE,24,0.0,0.0,83,0.00,CLR,,0.00,0.0,WeatherDisplay:10.37,2013-10-26 03:31:00,
2013-10-25 23:36:00,38.0,33.3,30.34,NNE,24,0.0,0.0,83,0.00,CLR,,0.00,0.0,WeatherDisplay:10.37,2013-10-26 03:36:00,
2013-10-25 23:41:00,38.0,33.3,30.34,NNE,24,0.0,0.0,83,0.00,CLR,,0.00,0.0,WeatherDisplay:10.37,2013-10-26 03:41:00,
2013-10-25 23:46:00,38.0,33.6,30.34,NNE,24,0.0,0.0,84,0.00,CLR,,0.00,0.0,WeatherDisplay:10.37,2013-10-26 03:46:00,
2013-10-25 23:51:00,37.9,33.5,30.34,NNE,24,0.0,0.0,84,0.00,CLR,,0.00,0.0,WeatherDisplay:10.37,2013-10-26 03:51:00,
2013-10-25 23:56:00,37.9,33.5,30.34,NNE,24,0.0,0.0,84,0.00,CLR,,0.00,0.0,WeatherDisplay:10.37,2013-10-26 03:56:00,